sat.trackr.live / text

‹ back to catalog

STARLINK-11263 [DTC]

NORAD 60725 · 2024-152F

PAYLOAD ACTIVE UNKNOWN

§ Identity

Operator
Country
US
Launch date
2024-08-28
Launch site
AFETR
Launch vehicle
Mass (kg)
RCS (m²)

Purposes: comms

External: N2YO · Heavens-Above · Gunter

§ Orbital elements

Epoch: 2026-05-25T03:36:33.149952Z

Period
91.74 min
Inclination
53.1587°
Eccentricity
0.0000969
Mean motion
15.69692361 rev/d
Perigee alt
359.1 km
Apogee alt
360.4 km
Semi-major
6,737.9 km
B*
3.0670e-5
RAAN
99.3672°
Arg perigee
79.8875°
Mean anomaly
280.2252°
Rev number
10,084

§ Raw data

STARLINK-11263 [DTC]1 60725U 24152F   26145.15038368  .00003126  00000+0  30670-4 0  99972 60725  53.1587  99.3672 0000969  79.8875 280.2252 15.69692361100847

JSON: /api/v1/satellites/60725 · /tle

For live sub-satellite position, see the globe view (requires WebGL).

§ Visibility from observer

Set your observer location to see the next 7 days of passes ≥ 10°. The values pass through the URL so the page stays shareable.

No JS? Fill the form by hand. The geolocation button needs JavaScript.